�N����,����,�g�[���i���ԁj���x,�g�[�����x,��g�[���i���ցj���x,����
 2003/12/01, 0:00,23.8,53,22.1,17.1
 2003/12/01, 0:15,23.7,53,22.1,17.1
 2003/12/01, 0:30,23.6,53,22,17.1
 2003/12/01, 0:45,23.4,53,22,17.2
 2003/12/01, 1:00,23.3,53,21.9,17.3
 2003/12/01, 1:15,23.3,53,21.9,17.4
 2003/12/01, 1:30,23.1,54,21.8,17.4
 2003/12/01, 1:45,23.1,54,21.8,17.5
 2003/12/01, 2:00,23,54,21.8,17.6
 2003/12/01, 2:15,22.9,54,21.7,17.6
 2003/12/01, 2:30,23,54,21.7,17.7
 2003/12/01, 2:45,23,55,21.7,17.8
 2003/12/01, 3:00,22.9,55,21.7,17.8
 2003/12/01, 3:15,23,55,21.7,17.9
 2003/12/01, 3:30,22.9,55,21.6,17.9
 2003/12/01, 3:45,22.8,55,21.6,18
 2003/12/01, 4:00,22.8,56,21.6,18.1
 2003/12/01, 4:15,22.9,56,21.6,18.8
 2003/12/01, 4:30,22.8,56,21.7,18.9
 2003/12/01, 4:45,22.8,55,21.5,19
 2003/12/01, 5:00,22.7,56,21.5,19.1
 2003/12/01, 5:15,22.7,56,21.5,19.1
 2003/12/01, 5:30,22.7,56,21.5,19.2
 2003/12/01, 5:45,22.7,56,21.5,19.2
 2003/12/01, 6:00,22.7,56,21.5,19.3
 2003/12/01, 6:15,22.7,56,21.4,19.3
 2003/12/01, 6:30,22.6,56,21.4,19.4
 2003/12/01, 6:45,22.6,57,21.5,19.7
 2003/12/01, 7:00,22.9,58,21.8,17.4
 2003/12/01, 7:15,23,58,21.8,17.4
 2003/12/01, 7:30,23.6,55,22,17.4
 2003/12/01, 7:45,23.3,51,22.2,17.8
 2003/12/01, 8:00,23.7,52,22.1,17.5
 2003/12/01, 8:15,24,52,22.1,17.6
 2003/12/01, 8:30,24.3,52,22.2,17.6
 2003/12/01, 8:45,24.3,52,22.3,17.2
 2003/12/01, 9:00,24,53,22.3,17.3
 2003/12/01, 9:15,24.2,52,22.3,17.3
 2003/12/01, 9:30,24.6,52,22.5,17.3
 2003/12/01, 9:45,25,51,22.5,17.4
 2003/12/01,10:00,25,52,22.6,17.5
 2003/12/01,10:15,25,52,22.7,17.5
 2003/12/01,10:30,24.7,53,22.7,18.1
 2003/12/01,10:45,24.4,53,22.6,18.1
 2003/12/01,11:00,24.7,52,22.6,18.1
 2003/12/01,11:15,24.8,52,22.6,18.2
 2003/12/01,11:30,24.7,52,22.6,18.3
 2003/12/01,11:45,24.4,53,22.6,18.1
 2003/12/01,12:00,24.1,53,22.5,18.1
 2003/12/01,12:15,23.8,54,22.5,18.2
 2003/12/01,12:30,23.7,54,22.4,18.2
 2003/12/01,12:45,24,53,22.4,18.3
 2003/12/01,13:00,24.3,53,22.4,18.3
 2003/12/01,13:15,24.4,53,22.5,18.4
 2003/12/01,13:30,23.9,54,22.4,18.4
 2003/12/01,13:45,23.7,54,22.4,18.5
 2003/12/01,14:00,23.6,54,22.3,18.5
 2003/12/01,14:15,23.6,54,22.2,18.6
 2003/12/01,14:30,23.5,54,22.2,18.7
 2003/12/01,14:45,23.4,55,22.1,18.7
 2003/12/01,15:00,23.3,55,22.1,18.8
 2003/12/01,15:15,23.2,55,22.1,18.8
 2003/12/01,15:30,23.2,55,22,18.9
 2003/12/01,15:45,23.1,55,21.9,18.9
 2003/12/01,16:00,23.1,56,21.9,18.8
 2003/12/01,16:15,23.2,56,21.9,18.8
 2003/12/01,16:30,23.1,55,21.9,18.2
 2003/12/01,16:45,23.1,55,21.8,18.2
 2003/12/01,17:00,23.3,55,21.7,18.2
 2003/12/01,17:15,23.2,55,21.9,18.3
 2003/12/01,17:30,23.2,55,21.9,18.6
 2003/12/01,17:45,23.2,55,21.8,18.6
 2003/12/01,18:00,23.3,55,21.7,18.6
 2003/12/01,18:15,23.4,54,21.8,18.7
 2003/12/01,18:30,23.3,55,21.8,18.7
 2003/12/01,18:45,23.4,54,21.8,18.7
 2003/12/01,19:00,23.3,55,21.6,18.8
 2003/12/01,19:15,23.2,56,21.4,18.8
 2003/12/01,19:30,23.3,54,21.3,18.9
 2003/12/01,19:45,23.5,53,21,18.9
 2003/12/01,20:00,23.5,53,20.9,18.9
 2003/12/01,20:15,23.5,53,21.1,19
 2003/12/01,20:30,23.4,53,21.2,19
 2003/12/01,20:45,23.4,53,21.3,19.1
 2003/12/01,21:00,23.5,53,21.4,17.8
 2003/12/01,21:15,23.5,53,21.4,16.8
 2003/12/01,21:30,23.5,53,21.5,16.2
 2003/12/01,21:45,23.5,56,21.6,16.2
 2003/12/01,22:00,23.5,55,21.6,16.2
 2003/12/01,22:15,23.5,55,21.6,16.3
 2003/12/01,22:30,24.1,52,21.4,16.4
 2003/12/01,22:45,24.7,53,21.3,16.4
 2003/12/01,23:00,25.1,53,21.3,16.5
 2003/12/01,23:15,25.5,52,21.3,16.6
 2003/12/01,23:30,25.8,51,21.2,16.7
 2003/12/01,23:45,25.7,50,21.3,17.3
 2003/12/02, 0:00,25.5,51,21.8,16.6
 2003/12/02, 0:15,24.9,52,21.9,16.6
 2003/12/02, 0:30,24.5,53,21.9,16.7
 2003/12/02, 0:45,24.3,55,22,16.7
 2003/12/02, 1:00,24,56,22,16.8
 2003/12/02, 1:15,23.8,56,22,16.9
 2003/12/02, 1:30,23.7,56,22,16.9
 2003/12/02, 1:45,23.6,56,21.9,17
 2003/12/02, 2:00,23.5,56,21.9,17.1
 2003/12/02, 2:15,23.4,56,21.9,17.2
 2003/12/02, 2:30,23.3,57,21.9,17.3
 2003/12/02, 2:45,23.3,57,21.9,17.3
 2003/12/02, 3:00,23.1,57,21.8,17.4
 2003/12/02, 3:15,23.1,57,21.8,17.5
 2003/12/02, 3:30,23.1,56,21.7,17.6
 2003/12/02, 3:45,23,57,21.7,17.6
 2003/12/02, 4:00,23,57,21.7,17.7
 2003/12/02, 4:15,22.9,57,21.6,17.8
 2003/12/02, 4:30,22.9,57,21.6,17.8
 2003/12/02, 4:45,22.9,57,21.6,17.9
 2003/12/02, 5:00,22.8,57,21.7,18
 2003/12/02, 5:15,22.8,57,21.6,18
 2003/12/02, 5:30,22.9,57,21.5,17.8
 2003/12/02, 5:45,22.9,58,21.5,17.8
 2003/12/02, 6:00,23,57,21.5,17.4
 2003/12/02, 6:15,23.1,54,21.7,17.4
 2003/12/02, 6:30,23.1,52,21.4,17.5
 2003/12/02, 6:45,23.1,52,21.5,17.5
 2003/12/02, 7:00,23.5,51,21.6,17.6
 2003/12/02, 7:15,23.8,51,21.7,17.9
 2003/12/02, 7:30,23.9,51,22.1,17.7
 2003/12/02, 7:45,23.9,47,22,17
 2003/12/02, 8:00,23.9,45,21.8,17
 2003/12/02, 8:15,23.9,44,21.7,17.1
 2003/12/02, 8:30,23.9,44,21.5,17.1
 2003/12/02, 8:45,23.9,45,21.5,17.2
 2003/12/02, 9:00,23.9,44,21.4,17.2
 2003/12/02, 9:15,23.9,44,21.3,17.3
 2003/12/02, 9:30,23.7,45,21.3,17.3
 2003/12/02, 9:45,23.6,43,21.1,17.4
 2003/12/02,10:00,23.2,43,20.9,17.4
 2003/12/02,10:15,23.1,45,20.7,17.4
 2003/12/02,10:30,23,45,20.5,17.4
 2003/12/02,10:45,22.9,44,20.4,17.5
 2003/12/02,11:00,22.8,45,20.3,17.5
 2003/12/02,11:15,22.7,46,20.2,17.6
 2003/12/02,11:30,22.6,44,20.1,17.6
 2003/12/02,11:45,22.5,46,20.1,17.7
 2003/12/02,12:00,22.5,44,20,18
 2003/12/02,12:15,22.5,44,20.1,18
 2003/12/02,12:30,22.6,44,20.2,18
 2003/12/02,12:45,22.6,45,20.3,18.1
 2003/12/02,13:00,22.7,45,20.4,18.1
 2003/12/02,13:15,22.7,44,20.4,18.1
 2003/12/02,13:30,22.7,45,20.5,18.2
 2003/12/02,13:45,22.8,45,20.5,18.2
 2003/12/02,14:00,22.8,45,20.6,18.2
 2003/12/02,14:15,22.8,45,20.7,18.2
 2003/12/02,14:30,22.6,46,20.7,18.2
 2003/12/02,14:45,22.6,47,20.7,18.3
 2003/12/02,15:00,22.5,47,20.7,18.3
 2003/12/02,15:15,22.5,47,20.7,18.4
 2003/12/02,15:30,22.3,44,20.4,18.3
 2003/12/02,15:45,22.3,44,20.6,18.2
 2003/12/02,16:00,22.2,44,20.5,18.2
 2003/12/02,16:15,22.1,45,20.4,18.3
 2003/12/02,16:30,22.1,45,20.6,18.5
 2003/12/02,16:45,22.1,47,20.9,18.1
 2003/12/02,17:00,22.1,47,20.6,18.1
 2003/12/02,17:15,22.1,47,20.7,18.2
 2003/12/02,17:30,22.2,45,21,17.5
 2003/12/02,17:45,22.2,46,21.1,17.5
 2003/12/02,18:00,22.7,44,20.8,17.7
 2003/12/02,18:15,23.3,41,20.8,17.8
 2003/12/02,18:30,23.3,42,21.5,17.8
 2003/12/02,18:45,23.4,42,21.8,17.8
 2003/12/02,19:00,23.6,41,21.6,17.9
 2003/12/02,19:15,23.8,42,21.5,18.1
 2003/12/02,19:30,24.1,43,21.7,18.1
 2003/12/02,19:45,24.2,45,21.6,18.2
 2003/12/02,20:00,24.3,42,21.6,18.2
 2003/12/02,20:15,24.2,46,21.7,18.2
 2003/12/02,20:30,24.1,46,21.9,18.3
 2003/12/02,20:45,24,47,22,17.6
 2003/12/02,21:00,24.2,50,21.6,17.6
 2003/12/02,21:15,24.3,49,21.7,17.7
 2003/12/02,21:30,24.2,49,21.8,17.7
 2003/12/02,21:45,24.1,49,22,17.7
 2003/12/02,22:00,24,48,22.2,16.7
 2003/12/02,22:15,23.9,48,22.4,16.7
 2003/12/02,22:30,23.7,47,22.1,17.1
 2003/12/02,22:45,23.6,47,21.9,17.2
 2003/12/02,23:00,23.6,47,21.7,17.4
 2003/12/02,23:15,23.6,47,21.7,17.6
 2003/12/02,23:30,24.2,45,21.8,17.7
 2003/12/02,23:45,24.3,46,21.9,17.7
 2003/12/03, 0:00,24.5,45,22,17.8
 2003/12/03, 0:15,24.6,45,22.1,17.8
 2003/12/03, 0:30,24.7,44,22.1,17.9
 2003/12/03, 0:45,24.7,44,22.2,17.9
 2003/12/03, 1:00,24.8,43,22.3,18
 2003/12/03, 1:15,24.9,43,22.3,18.1
 2003/12/03, 1:30,24.4,45,22.3,18.2
 2003/12/03, 1:45,24.1,45,22.2,18.2
 2003/12/03, 2:00,23.8,46,22.1,18.2
 2003/12/03, 2:15,23.7,46,22,18.3
 2003/12/03, 2:30,23.5,47,21.9,18.3
 2003/12/03, 2:45,23.3,47,21.8,18.4
 2003/12/03, 3:00,23.2,47,21.8,18.4
 2003/12/03, 3:15,23.1,48,21.7,18.5
 2003/12/03, 3:30,23,48,21.6,18.5
 2003/12/03, 3:45,22.9,48,21.6,18.6
 2003/12/03, 4:00,22.9,49,21.5,18.6
 2003/12/03, 4:15,22.8,49,21.5,18.7
 2003/12/03, 4:30,22.7,49,21.4,18.7
 2003/12/03, 4:45,22.6,49,21.4,18.8
 2003/12/03, 5:00,22.6,49,21.3,18.8
 2003/12/03, 5:15,22.6,49,21.3,18.8
 2003/12/03, 5:30,23.3,47,21.3,17
 2003/12/03, 5:45,23.8,43,21.3,17
 2003/12/03, 6:00,23.7,43,21.3,17.3
 2003/12/03, 6:15,23.8,42,21.5,17.3
 2003/12/03, 6:30,24.3,45,21.9,17.2
 2003/12/03, 6:45,24,48,22.2,17.1
 2003/12/03, 7:00,24,46,22,17.2
 2003/12/03, 7:15,24.2,45,22,17.2
 2003/12/03, 7:30,24.3,46,22.1,17.4
 2003/12/03, 7:45,24.4,45,22.1,17.4
 2003/12/03, 8:00,24.5,45,22.2,17.4
 2003/12/03, 8:15,24.2,46,22.1,16.9
 2003/12/03, 8:30,24.5,45,22.1,17
 2003/12/03, 8:45,24.2,45,22.1,17
 2003/12/03, 9:00,23.8,41,22.1,17.1
 2003/12/03, 9:15,23.5,44,22,17.1
 2003/12/03, 9:30,23.3,41,21.7,17
 2003/12/03, 9:45,23,40,21.6,16.9
 2003/12/03,10:00,22.9,43,21.5,17
 2003/12/03,10:15,22.8,44,21.5,17
 2003/12/03,10:30,22.8,45,21.4,17.1
 2003/12/03,10:45,22.7,44,21.3,17.1
 2003/12/03,11:00,22.7,45,21.3,17.2
 2003/12/03,11:15,22.9,45,21.3,17.3
 2003/12/03,11:30,23.1,44,21.3,17.3
 2003/12/03,11:45,23.3,43,21.3,17.4
 2003/12/03,12:00,23.5,42,21.4,17.4
 2003/12/03,12:15,23.6,42,21.3,17.5
 2003/12/03,12:30,23.7,42,21.4,17.5
 2003/12/03,12:45,23.9,41,21.4,17.6
 2003/12/03,13:00,24.1,41,21.5,17.6
 2003/12/03,13:15,24.3,40,21.5,17.7
 2003/12/03,13:30,24.3,40,21.6,18
 2003/12/03,13:45,24.5,38,21.6,17.9
 2003/12/03,14:00,24.1,36,21.6,18
 2003/12/03,14:15,23.8,39,21.5,18
 2003/12/03,14:30,23.4,34,21.4,17.5
 2003/12/03,14:45,23.1,36,21.2,17.5
 2003/12/03,15:00,23,37,21.2,17.5
 2003/12/03,15:15,23,38,21.2,17.6
 2003/12/03,15:30,22.9,40,21.2,17.6
 2003/12/03,15:45,22.9,39,21.3,17.6
 2003/12/03,16:00,22.8,39,21.2,17.7
 2003/12/03,16:15,22.8,40,21.5,17.5
 2003/12/03,16:30,22.9,41,21.7,17.5
 2003/12/03,16:45,22.9,42,21.8,17.6
 2003/12/03,17:00,23,42,21.8,17.9
 2003/12/03,17:15,23,42,21.8,17.9
 2003/12/03,17:30,23,44,21.9,17.5
 2003/12/03,17:45,23,44,21.9,16.7
 2003/12/03,18:00,23,45,21.5,16.7
 2003/12/03,18:15,22.9,45,21.3,16.8
 2003/12/03,18:30,22.8,44,20.9,17.1
 2003/12/03,18:45,22.7,43,20.7,17.1
 2003/12/03,19:00,22.6,42,20.6,17
 2003/12/03,19:15,22.5,43,20.5,16.8
 2003/12/03,19:30,22.5,43,20.3,16.6
 2003/12/03,19:45,22.4,43,20.2,16.7
 2003/12/03,20:00,22.4,44,20.2,16.7
 2003/12/03,20:15,22.4,45,20.2,16.8
 2003/12/03,20:30,22.4,44,20.1,16.8
 2003/12/03,20:45,22.6,46,20.4,16.9
 2003/12/03,21:00,22.7,45,20.3,17.3
 2003/12/03,21:15,23,45,20.8,16.5
 2003/12/03,21:30,23.7,45,21.2,15.9
 2003/12/03,21:45,23.9,45,21.6,15.9
 2003/12/03,22:00,24,45,21.9,16
 2003/12/03,22:15,24.1,45,21.8,16
 2003/12/03,22:30,24.2,47,21.7,16.9
 2003/12/03,22:45,24.3,46,21.8,17
 2003/12/03,23:00,24.5,45,21.8,17.3
 2003/12/03,23:15,24.5,45,21.9,17.4
 2003/12/03,23:30,24.5,44,21.9,17.4
 2003/12/03,23:45,24.6,44,21.9,17.5
 2003/12/04, 0:00,24.6,44,22,17.5
 2003/12/04, 0:15,24.7,44,22,17.6
 2003/12/04, 0:30,24.7,44,22,17.8
 2003/12/04, 0:45,24.8,45,22.1,17.2
 2003/12/04, 1:00,24.9,44,22.1,17.2
 2003/12/04, 1:15,24.8,45,22.2,17.3
 2003/12/04, 1:30,24.8,46,22.3,17.3
 2003/12/04, 1:45,24.3,46,22.2,17.2
 2003/12/04, 2:00,24,46,22.1,17.1
 2003/12/04, 2:15,23.7,47,22,17.2
 2003/12/04, 2:30,23.6,47,21.9,17.3
 2003/12/04, 2:45,23.4,47,21.8,17.3
 2003/12/04, 3:00,23.3,47,21.7,17.4
 2003/12/04, 3:15,23.1,47,21.6,17.5
 2003/12/04, 3:30,23,48,21.6,17.5
 2003/12/04, 3:45,22.9,48,21.5,17.6
 2003/12/04, 4:00,22.7,48,21.5,17.6
 2003/12/04, 4:15,22.7,48,21.4,17.7
 2003/12/04, 4:30,22.6,48,21.3,17.7
 2003/12/04, 4:45,22.5,48,21.3,17.8
 2003/12/04, 5:00,22.5,48,21.2,17.8
 2003/12/04, 5:15,22.4,48,21.1,17.9
 2003/12/04, 5:30,22.4,48,21.1,18
 2003/12/04, 5:45,22.8,49,21.1,18.9
 2003/12/04, 6:00,23.8,46,21.3,18.9
 2003/12/04, 6:15,23.5,44,21.2,17
 2003/12/04, 6:30,23.7,47,21.4,17
 2003/12/04, 6:45,23.7,45,21.5,17.1
 2003/12/04, 7:00,23.4,46,21.5,17.1
 2003/12/04, 7:15,23.2,46,21.4,17.2
 2003/12/04, 7:30,23.3,47,21.6,17.2
 2003/12/04, 7:45,23.2,47,21.6,16.8
 2003/12/04, 8:00,23.7,46,21.6,16.8
 2003/12/04, 8:15,23.9,47,21.6,16.3
 2003/12/04, 8:30,24,46,21.6,16.4
 2003/12/04, 8:45,24.1,47,21.7,16.4
 2003/12/04, 9:00,24.3,46,21.8,16.5
 2003/12/04, 9:15,24,47,21.8,16.6
 2003/12/04, 9:30,23.8,47,21.7,17.1
 2003/12/04, 9:45,23.4,41,21.6,16.9
 2003/12/04,10:00,23.1,40,21.2,16.9
 2003/12/04,10:15,22.8,37,20.8,17
 2003/12/04,10:30,22.5,36,20.5,17
 2003/12/04,10:45,22.3,35,20.3,17.1
 2003/12/04,11:00,22.1,36,20.1,17.1
 2003/12/04,11:15,22.3,36,19.8,17.1
 2003/12/04,11:30,22,34,19.9,17.3
 2003/12/04,11:45,22.4,34,19.8,17.3
 2003/12/04,12:00,22,30,19,17.3
 2003/12/04,12:15,22.1,31,18.8,17.4
 2003/12/04,12:30,22.2,33,18.7,17.4
 2003/12/04,12:45,21.9,32,18.5,17.5
 2003/12/04,13:00,21.9,39,18.8,17.5
 2003/12/04,13:15,21.8,41,19,17.5
 2003/12/04,13:30,21.7,38,19.1,17.6
 2003/12/04,13:45,21.7,38,19.2,17.6
 2003/12/04,14:00,21.7,37,19.3,17.7
 2003/12/04,14:15,21.7,37,19.3,17.7
 2003/12/04,14:30,22.1,36,19.4,17.7
 2003/12/04,14:45,22.3,36,19.4,17.8
 2003/12/04,15:00,22.2,36,19.5,17.8
 2003/12/04,15:15,22,36,19.6,17.9
 2003/12/04,15:30,21.9,36,19.5,17.6
 2003/12/04,15:45,21.7,37,19.3,17.7
 2003/12/04,16:00,21.6,37,19.3,17.7
 2003/12/04,16:15,21.5,35,19.3,17.7
 2003/12/04,16:30,23,37,19.6,17
 2003/12/04,16:45,23.3,39,20,17.1
 2003/12/04,17:00,23.3,37,20.3,17.1
 2003/12/04,17:15,23.4,34,20.6,17.2
 2003/12/04,17:30,23.6,37,20.6,17.2
 2003/12/04,17:45,23.7,38,20.6,17.3
 2003/12/04,18:00,23.7,40,20.7,17.4
 2003/12/04,18:15,23.8,41,20.8,17.3
 2003/12/04,18:30,23.9,41,21,17.3
 2003/12/04,18:45,23.9,40,21.1,17.4
 2003/12/04,19:00,23.7,39,20.9,17.4
 2003/12/04,19:15,23.7,39,20.9,17.5
 2003/12/04,19:30,23.6,39,20.9,17.5
 2003/12/04,19:45,23.7,39,20.8,17.6
 2003/12/04,20:00,23.8,40,20.6,17.7
 2003/12/04,20:15,23.9,46,20.4,17.7
 2003/12/04,20:30,23.7,45,20.4,17.3
 2003/12/04,20:45,23.5,44,20.5,16.2
 2003/12/04,21:00,23.4,44,20.6,16.2
 2003/12/04,21:15,23.3,44,20.7,16.2
 2003/12/04,21:30,23.2,44,20.7,16.3
 2003/12/04,21:45,23.1,44,20.7,16.4
 2003/12/04,22:00,23.1,44,20.7,16.7
 2003/12/04,22:15,23.1,44,20.7,16.7
 2003/12/04,22:30,23.1,44,20.8,16.8
 2003/12/04,22:45,23,45,20.8,16.8
 2003/12/04,23:00,23.1,45,20.8,16.9
 2003/12/04,23:15,24.1,46,21.1,16.1
 2003/12/04,23:30,24.5,43,21.4,16.2
 2003/12/04,23:45,24.6,41,21.1,16.1
 2003/12/05, 0:00,24.9,42,21.2,16.2
 2003/12/05, 0:15,24.4,44,21.1,16.4
 2003/12/05, 0:30,24.2,45,20.9,16.4
 2003/12/05, 0:45,24,45,20.9,16.4
 2003/12/05, 1:00,23.8,45,20.9,17
 2003/12/05, 1:15,23.6,46,20.9,17.1
 2003/12/05, 1:30,23.5,47,21,17.1
 2003/12/05, 1:45,23.3,47,21,17.2
 2003/12/05, 2:00,23.3,47,21,17.3
 2003/12/05, 2:15,23.1,47,21,17.3
 2003/12/05, 2:30,23,47,21,17.4
 2003/12/05, 2:45,22.8,47,21,17.5
 2003/12/05, 3:00,22.6,47,20.9,17.5
 2003/12/05, 3:15,22.5,48,20.9,17.6
 2003/12/05, 3:30,22.4,48,20.9,17.6
 2003/12/05, 3:45,22.4,48,20.8,17.7
 2003/12/05, 4:00,22.3,48,20.8,17.8
 2003/12/05, 4:15,22.3,48,20.8,17.8
 2003/12/05, 4:30,22.3,48,20.8,17.9
 2003/12/05, 4:45,22.2,49,20.8,18
 2003/12/05, 5:00,22.2,49,20.7,18
 2003/12/05, 5:15,22.1,49,20.8,18.1
 2003/12/05, 5:30,22.1,49,20.7,18.1
 2003/12/05, 5:45,22,49,20.7,18.2
 2003/12/05, 6:00,22,49,20.7,18.3
 2003/12/05, 6:15,22,49,20.6,18.3
 2003/12/05, 6:30,21.9,49,20.7,18.4
 2003/12/05, 6:45,21.9,50,20.8,16.1
 2003/12/05, 7:00,22,50,20.9,16.2
 2003/12/05, 7:15,22.1,49,20.9,16.2
 2003/12/05, 7:30,22.1,48,20.6,16.2
 2003/12/05, 7:45,22.1,48,20.9,15.9
 2003/12/05, 8:00,22.2,48,20.8,15.7
 2003/12/05, 8:15,23.6,46,20.8,15.8
 2003/12/05, 8:30,23.4,48,20.9,15.8
 2003/12/05, 8:45,23.5,47,21,15.9
 2003/12/05, 9:00,23.6,49,21.1,16
 2003/12/05, 9:15,23.7,50,21.2,16.3
 2003/12/05, 9:30,23.7,50,21.3,16.4
 2003/12/05, 9:45,23.8,50,21.4,16.4
 2003/12/05,10:00,23.2,42,21.2,16.5
 2003/12/05,10:15,22.9,44,21.1,16.7
 2003/12/05,10:30,22.7,45,21,16.7
 2003/12/05,10:45,22.5,44,20.9,16.7
 2003/12/05,11:00,22.5,43,20.8,16.8
 2003/12/05,11:15,22.7,44,20.7,16.8
 2003/12/05,11:30,22.9,44,20.7,16.9
 2003/12/05,11:45,23.1,44,20.7,17
 2003/12/05,12:00,23.3,44,20.8,17.1
 2003/12/05,12:15,23.4,41,20.7,17.1
 2003/12/05,12:30,23.4,36,20.7,17.2
 2003/12/05,12:45,23.5,35,20.7,17.2
 2003/12/05,13:00,23.6,34,20.6,17.3
 2003/12/05,13:15,23.7,36,20.7,17.4
 2003/12/05,13:30,23.9,36,20.7,17.4
 2003/12/05,13:45,24.1,36,20.8,17.5
 2003/12/05,14:00,24.2,36,20.8,17.6
 2003/12/05,14:15,24.3,36,20.8,17.6
 2003/12/05,14:30,24.3,35,20.8,17.7
 2003/12/05,14:45,24,36,20.8,17.7
 2003/12/05,15:00,23.6,35,20.7,17.6
 2003/12/05,15:15,23,33,20.6,17.6
 2003/12/05,15:30,22.7,33,20.6,17.6
 2003/12/05,15:45,22.6,36,20.5,17.2
 2003/12/05,16:00,22.5,38,20.6,17.2
 2003/12/05,16:15,22.4,39,20.5,17.3
 2003/12/05,16:30,22.4,41,20.6,17.3
 2003/12/05,16:45,22.4,42,20.6,17.3
 2003/12/05,17:00,22.4,44,20.6,17.3
 2003/12/05,17:15,22.4,44,20.9,17.3
 2003/12/05,17:30,22.3,44,21.1,17.4
 2003/12/05,17:45,22.2,44,21.2,17.4
 2003/12/05,18:00,22.2,45,21.3,16.7
 2003/12/05,18:15,22.2,44,20.9,16.7
 2003/12/05,18:30,22.2,44,20.8,16.8
 2003/12/05,18:45,22,45,20.7,16.8
 2003/12/05,19:00,22,45,20.7,16.9
 2003/12/05,19:15,22.9,43,21.1,17
 2003/12/05,19:30,23.2,41,21,17
 2003/12/05,19:45,23.5,40,20.9,17.1
 2003/12/05,20:00,23.7,39,20.9,17.1
 2003/12/05,20:15,23.7,39,20.9,17.2
 2003/12/05,20:30,23.7,39,20.8,17.2
 2003/12/05,20:45,23.7,38,20.8,17.3
 2003/12/05,21:00,23.8,40,21,17.4
 2003/12/05,21:15,23.9,42,21.1,17.4
 2003/12/05,21:30,24,43,21.2,17.8
 2003/12/05,21:45,24.2,43,21.4,15.8
 2003/12/05,22:00,24.2,43,21.4,15.8
 2003/12/05,22:15,23.8,44,21.5,16.2
 2003/12/05,22:30,23.6,44,21.4,16.2
 2003/12/05,22:45,23.4,44,21.4,16.2
 2003/12/05,23:00,23.2,45,21.3,16.3
 2003/12/05,23:15,23.1,45,21.3,16.4
 2003/12/05,23:30,23.1,45,21.3,16.5
 2003/12/05,23:45,23,46,21.2,16.6
 2003/12/06, 0:00,22.9,46,21.2,16.6
 2003/12/06, 0:15,22.9,46,21.2,16.7
 2003/12/06, 0:30,22.8,46,21.1,16.8
 2003/12/06, 0:45,22.7,47,21.1,16.8
 2003/12/06, 1:00,22.7,47,21.1,16.9
 2003/12/06, 1:15,22.7,48,21.1,17
 2003/12/06, 1:30,22.7,48,21.1,17.9
 2003/12/06, 1:45,22.6,48,21.1,18.1
 2003/12/06, 2:00,22.7,47,21.1,18.2
 2003/12/06, 2:15,22.6,47,21.1,18.2
 2003/12/06, 2:30,22.6,47,21,18.3
 2003/12/06, 2:45,22.6,47,21,18.4
 2003/12/06, 3:00,22.5,47,20.9,18.4
 2003/12/06, 3:15,22.5,47,20.9,18.5
 2003/12/06, 3:30,22.5,48,20.9,18.5
 2003/12/06, 3:45,22.5,48,20.9,18.6
 2003/12/06, 4:00,22.4,48,20.9,18.6
 2003/12/06, 4:15,22.4,48,20.9,18.7
 2003/12/06, 4:30,22.4,48,20.8,18.7
 2003/12/06, 4:45,22.5,48,20.9,18.8
 2003/12/06, 5:00,22.4,48,20.9,18.8
 2003/12/06, 5:15,22.5,48,20.8,18.9
 2003/12/06, 5:30,22.4,49,20.9,18.9
 2003/12/06, 5:45,22.4,49,20.9,19
 2003/12/06, 6:00,22.5,50,20.9,19
 2003/12/06, 6:15,23.5,47,21.1,19.1
 2003/12/06, 6:30,23.6,46,21.2,19.4
 2003/12/06, 6:45,24,44,21.3,19.4
 2003/12/06, 7:00,23.6,44,21.3,19.5
 2003/12/06, 7:15,23.5,46,21.3,19.5
 2003/12/06, 7:30,23.4,46,21.2,19.5
 2003/12/06, 7:45,23.3,47,21.2,19.6
 2003/12/06, 8:00,23.3,47,21.2,19.6
 2003/12/06, 8:15,23.4,49,21.3,16.2
 2003/12/06, 8:30,24.4,46,21.8,16.2
 2003/12/06, 8:45,24.3,46,21.9,16.2
 2003/12/06, 9:00,24.3,47,22,16.9
 2003/12/06, 9:15,23.9,46,21.8,16.3
 2003/12/06, 9:30,23.8,46,21.7,16.3
 2003/12/06, 9:45,23.6,47,21.7,16.3
 2003/12/06,10:00,23.5,47,21.6,16.4
 2003/12/06,10:15,23.4,47,21.5,16.5
 2003/12/06,10:30,23.3,47,21.5,16.6
 2003/12/06,10:45,23.3,47,21.4,16.6
 2003/12/06,11:00,23.3,47,21.3,16.7
 2003/12/06,11:15,23.2,47,21.2,16.8
 2003/12/06,11:30,23.2,47,21.3,16.8
 2003/12/06,11:45,23,47,21.2,16.9
 2003/12/06,12:00,23.1,47,21.2,17
 2003/12/06,12:15,23,47,21.3,17
 2003/12/06,12:30,23,47,21.6,17.7
 2003/12/06,12:45,23,48,21.7,17.8
 2003/12/06,13:00,23,48,21.4,17.9
 2003/12/06,13:15,23.1,49,21.2,17.9
 2003/12/06,13:30,23.2,49,21.2,18.9
 2003/12/06,13:45,23,49,21.2,17.6
 2003/12/06,14:00,23,51,21.1,16.6
 2003/12/06,14:15,23.5,50,21.2,16.7
 2003/12/06,14:30,23.7,52,21.2,16.7
 2003/12/06,14:45,23.6,50,21.3,16.8
 2003/12/06,15:00,23.4,51,21.4,16.8
 2003/12/06,15:15,23.3,51,21.4,18
 2003/12/06,15:30,23.3,51,21.4,16.5
 2003/12/06,15:45,23,51,21.4,16.5
 2003/12/06,16:00,23,51,21.4,16.9
 2003/12/06,16:15,22.9,51,21.3,17
 2003/12/06,16:30,22.8,51,21.3,17.1
 2003/12/06,16:45,22.8,51,21.2,17.1
 2003/12/06,17:00,22.7,51,21.2,17.2
 2003/12/06,17:15,22.6,51,21.5,17.7
 2003/12/06,17:30,22.7,52,21.3,17.6
 2003/12/06,17:45,22.8,53,21.7,17.7
 2003/12/06,18:00,22.9,53,21.8,17.7
 2003/12/06,18:15,23,56,21.6,18.2
 2003/12/06,18:30,23,57,21.7,18.3
 2003/12/06,18:45,23.6,55,21.8,18.4
 2003/12/06,19:00,23.7,54,22,18.4
 2003/12/06,19:15,23.9,56,22.2,18.2
 2003/12/06,19:30,24,55,22.3,18.2
 2003/12/06,19:45,24.1,54,22.1,18.3
 2003/12/06,20:00,24.2,53,22,18.3
 2003/12/06,20:15,24.4,52,21.9,18.4
 2003/12/06,20:30,24.6,54,22,18.4
 2003/12/06,20:45,25.1,53,22.1,18.5
 2003/12/06,21:00,25.1,53,22.2,18.5
 2003/12/06,21:15,25,53,22.3,17.4
 2003/12/06,21:30,25,53,22.4,16.7
 2003/12/06,21:45,25,53,22.5,16.1
 2003/12/06,22:00,25.1,53,22.6,16.1
 2003/12/06,22:15,25.1,53,22.6,16.1
 2003/12/06,22:30,25.2,52,22.7,16.2
 2003/12/06,22:45,25.2,52,22.8,16.3
 2003/12/06,23:00,25.2,52,22.8,16.4
 2003/12/06,23:15,25.2,51,22.8,16.5
 2003/12/06,23:30,25.2,51,22.9,16.5
 2003/12/06,23:45,25.2,51,22.9,16.6
 2003/12/07, 0:00,25.3,50,22.9,16.7
 2003/12/07, 0:15,25.2,50,22.9,16.8
 2003/12/07, 0:30,25.2,49,22.9,16.9
 2003/12/07, 0:45,25.3,48,22.9,17
 2003/12/07, 1:00,25.2,48,22.9,17.1
 2003/12/07, 1:15,25.2,48,22.9,17.1
 2003/12/07, 1:30,25.2,48,22.9,17.2
 2003/12/07, 1:45,25.6,47,22.9,17.3
 2003/12/07, 2:00,25.2,48,22.9,17.4
 2003/12/07, 2:15,25.3,48,22.9,17.5
 2003/12/07, 2:30,25.2,48,22.9,17.5
 2003/12/07, 2:45,24.9,48,22.9,17.9
 2003/12/07, 3:00,24.5,48,22.7,17.9
 2003/12/07, 3:15,24.1,49,22.6,17.9
 2003/12/07, 3:30,23.9,49,22.5,18
 2003/12/07, 3:45,23.7,49,22.4,18
 2003/12/07, 4:00,23.6,49,22.3,18.1
 2003/12/07, 4:15,23.4,49,22.2,18.2
 2003/12/07, 4:30,23.3,50,22.1,18.2
 2003/12/07, 4:45,23.2,50,22,18.2
 2003/12/07, 5:00,23.1,50,22,18.3
 2003/12/07, 5:15,23,50,21.9,18.4
 2003/12/07, 5:30,22.9,50,21.8,18.4
 2003/12/07, 5:45,22.8,50,21.7,18.5
 2003/12/07, 6:00,22.8,50,21.7,18.5
 2003/12/07, 6:15,22.8,50,21.7,18.6
 2003/12/07, 6:30,22.7,50,21.6,18.6
 2003/12/07, 6:45,22.6,50,21.5,18.7
 2003/12/07, 7:00,22.6,50,21.4,18.7
 2003/12/07, 7:15,22.6,50,21.4,18.8
 2003/12/07, 7:30,22.5,50,21.3,18.8
 2003/12/07, 7:45,22.4,50,21.3,19.7
 2003/12/07, 8:00,22.4,50,21.2,18.2
 2003/12/07, 8:15,22.4,50,21.2,18.3
 2003/12/07, 8:30,22.4,50,21.6,17.1
 2003/12/07, 8:45,22.4,50,21.7,17.2
 2003/12/07, 9:00,23.2,40,21.5,17.3
 2003/12/07, 9:15,23.2,32,21.3,17.3
 2003/12/07, 9:30,23.5,37,21.4,17.3
 2003/12/07, 9:45,23.5,36,21.7,17.4
 2003/12/07,10:00,23.5,37,21.9,17.5
 2003/12/07,10:15,23.1,35,21.6,16.8
 2003/12/07,10:30,22.7,34,21.1,16.9
 2003/12/07,10:45,22.6,33,20.8,16.9
 2003/12/07,11:00,22.6,39,20.7,17
 2003/12/07,11:15,22.6,33,20.6,16.6
 2003/12/07,11:30,22.6,32,20.5,16.4
 2003/12/07,11:45,22.8,31,20.6,15.9
 2003/12/07,12:00,23,31,20.5,16
 2003/12/07,12:15,23.2,28,20.6,16
 2003/12/07,12:30,23.3,26,20.6,16.6
 2003/12/07,12:45,23.4,28,20.6,16.6
 2003/12/07,13:00,23.2,28,20.6,16.3
 2003/12/07,13:15,23,33,20.6,16.2
 2003/12/07,13:30,22.8,37,20.6,16.1
 2003/12/07,13:45,22.7,33,20.6,16.2
 2003/12/07,14:00,22.9,28,20.6,16.3
 2003/12/07,14:15,22.7,31,20.5,16.4
 2003/12/07,14:30,22.4,34,20.7,16.4
 2003/12/07,14:45,22.5,32,20.5,16.3
 2003/12/07,15:00,22.8,35,20.5,16.4
 2003/12/07,15:15,22.7,36,20.6,16.4
 2003/12/07,15:30,22.8,37,20.6,16.5
 2003/12/07,15:45,22.8,37,20.7,16.8
 2003/12/07,16:00,22.9,38,20.7,16.4
 2003/12/07,16:15,22.9,38,20.7,16.3
 2003/12/07,16:30,22.8,39,20.7,16.5
 2003/12/07,16:45,23.2,39,20.6,16.5
 2003/12/07,17:00,23.7,35,20.8,16.3
 2003/12/07,17:15,23.8,38,21,16.3
 2003/12/07,17:30,23.8,38,21.3,15.4
 2003/12/07,17:45,23.3,38,21.1,15.8
 2003/12/07,18:00,23.1,39,21.3,16.1
 2003/12/07,18:15,23.5,38,21.4,16.2
 2003/12/07,18:30,23.6,38,21.5,16.2
 2003/12/07,18:45,23.7,39,21.6,16.2
 2003/12/07,19:00,24.1,39,21.4,16.3
 2003/12/07,19:15,24,39,21.4,16.3
 2003/12/07,19:30,24.1,40,21.4,16.4
 2003/12/07,19:45,24.2,41,21.5,16.5